Date String (YYYY-MM-DD hh:mm:ss) UTC,Instrument flags,Ambient pressure (hPa),Sample flow (lpm),Bypass flow (lpm),Sample temperature (°C),Ambient temperature (°C),ASC tube jacket temperature (°C),LED temperature (°C),Box temperature (°C),Sample RH (%),Span deviation,Mass concentration (μg/m³),Mass concentration (μg/m³),Mass concentration (μg/m³)
DateTimeUTC,F1_M11,P_M11,Q1_M11,Q2_M11,T1_M11,T2_M11,T3_M11,T4_M11,T5_M11,U1_M11,ZSPAN_M11,X0_M11,X2_M11,X1_M11
2022-01-14 09:00:00,,0820.9,5.00,0.00,25.6,24.7,00.0,34.8,27.3,06.3,0000.0,0000.67,0000.39,0000.26
2022-01-14 09:01:00,,0820.8,4.99,0.00,25.5,24.7,00.0,34.8,27.3,06.2,0000.0,0000.59,0000.37,0000.25
2022-01-14 09:02:00,,0820.8,5.01,0.00,25.5,24.6,00.0,34.7,27.2,06.3,0000.0,0000.61,0000.37,0000.26
2022-01-14 09:03:00,,0820.8,4.99,0.00,25.5,24.6,00.0,34.7,27.2,06.3,0000.0,0000.63,0000.38,0000.26
2022-01-14 09:04:00,,0820.8,5.01,0.00,25.4,24.6,00.0,34.7,27.2,06.0,0000.0,0000.59,0000.36,0000.26
2022-01-14 09:05:00,,0820.7,5.00,0.00,25.4,24.5,00.0,34.7,27.1,06.0,0000.0,0000.58,0000.36,0000.26
2022-01-14 09:06:00,,0820.7,4.99,0.00,25.4,24.5,00.0,34.6,27.1,06.3,0000.0,0000.58,0000.36,0000.26
2022-01-14 09:07:00,,0820.7,5.01,0.00,25.4,24.5,00.0,34.6,27.1,06.3,0000.0,0000.53,0000.35,0000.26
2022-01-14 09:08:00,,0820.6,4.98,0.00,25.4,24.5,00.0,34.6,27.1,06.1,0000.0,0000.49,0000.33,0000.26
2022-01-14 09:09:00,,0820.6,5.00,0.00,25.3,24.5,00.0,34.6,27.1,06.2,0000.0,0000.45,0000.30,0000.26
2022-01-14 09:10:00,,0820.6,5.00,0.00,25.3,24.5,00.0,34.6,27.0,06.1,0000.0,0000.37,0000.28,0000.25
2022-01-14 09:11:00,,0820.6,4.99,0.00,25.3,24.5,00.0,34.5,27.0,06.1,0000.0,0000.36,0000.28,0000.26
2022-01-14 09:12:00,,0820.6,5.01,0.00,25.3,24.5,00.0,34.5,27.0,06.2,0000.0,0000.38,0000.29,0000.26
2022-01-14 09:13:00,,0820.7,4.99,0.00,25.3,24.5,00.0,34.5,27.0,06.3,0000.0,0000.35,0000.28,0000.26
2022-01-14 09:14:00,,0820.7,5.01,0.00,25.3,24.6,00.0,34.5,27.1,06.4,0000.0,0000.39,0000.28,0000.26
2022-01-14 09:15:00,,0820.7,5.00,0.00,25.3,24.6,00.0,34.5,27.1,06.4,0000.0,0001.39,0000.29,0000.26
2022-01-14 09:16:00,,0820.7,4.99,0.00,25.3,24.6,00.0,34.5,27.2,06.3,0000.0,0001.46,0000.30,0000.27
2022-01-14 09:17:00,,0820.8,5.00,0.00,25.4,24.7,00.0,34.5,27.2,06.2,0000.0,0001.49,0000.31,0000.26
2022-01-14 09:18:00,,0820.7,5.00,0.00,25.4,24.7,00.0,34.5,27.2,06.3,0000.0,0001.48,0000.30,0000.26
2022-01-14 09:19:00,,0820.8,5.00,0.00,25.4,24.7,00.0,34.5,27.2,06.2,0000.0,0001.50,0000.31,0000.27
2022-01-14 09:20:00,,0820.8,5.00,0.00,25.4,24.7,00.0,34.5,27.2,06.3,0000.0,0001.56,0000.34,0000.28
2022-01-14 09:21:00,,0820.9,5.01,0.00,25.4,24.8,00.0,34.5,27.3,06.4,0000.0,0001.60,0000.36,0000.29
2022-01-14 09:22:00,,0820.8,5.01,0.00,25.4,24.8,00.0,34.5,27.3,06.3,0000.0,0001.63,0000.36,0000.28
2022-01-14 09:23:00,,0820.9,5.00,0.00,25.5,24.8,00.0,34.5,27.3,06.3,0000.0,0001.70,0000.37,0000.28
2022-01-14 09:24:00,,0820.8,4.99,0.00,25.5,24.8,00.0,34.5,27.3,06.1,0000.0,0001.71,0000.38,0000.27
2022-01-14 09:25:00,,0820.8,5.01,0.00,25.5,24.8,00.0,34.5,27.4,05.9,0000.0,0001.69,0000.38,0000.27
2022-01-14 09:26:00,,0820.8,5.00,0.00,25.5,24.9,00.0,34.5,27.4,06.0,0000.0,0000.65,0000.38,0000.28
2022-01-14 09:27:00,,0821.0,5.00,0.00,25.5,24.9,00.0,34.5,27.4,06.0,0000.0,0000.63,0000.37,0000.27
2022-01-14 09:28:00,,0821.0,5.01,0.00,25.5,24.9,00.0,34.5,27.4,06.1,0000.0,0000.59,0000.36,0000.27
2022-01-14 09:29:00,,0821.0,4.99,0.00,25.5,24.9,00.0,34.5,27.4,05.9,0000.0,0000.61,0000.36,0000.26
2022-01-14 09:30:00,,0821.0,4.99,0.00,25.5,24.9,00.0,34.5,27.4,06.1,0000.0,0000.61,0000.36,0000.26
2022-01-14 09:31:00,,0821.0,4.99,0.00,25.5,24.9,00.0,34.5,27.4,06.0,0000.0,0000.58,0000.35,0000.26
2022-01-14 09:32:00,,0821.0,5.01,0.00,25.5,24.9,00.0,34.5,27.4,06.1,0000.0,0000.54,0000.33,0000.25
2022-01-14 09:33:00,,0820.9,5.01,0.00,25.5,24.9,00.0,34.5,27.4,06.2,0000.0,0000.50,0000.32,0000.25
2022-01-14 09:34:00,,0821.0,4.99,0.00,25.6,24.9,00.0,34.5,27.4,06.3,0000.0,0000.43,0000.31,0000.25
2022-01-14 09:35:00,,0820.9,5.00,0.00,25.6,24.9,00.0,34.5,27.4,06.5,0000.0,0000.43,0000.31,0000.26
2022-01-14 09:36:00,,0821.0,5.00,0.00,25.6,24.9,00.0,34.5,27.4,06.2,0000.0,0000.39,0000.29,0000.26
2022-01-14 09:37:00,,0820.9,4.99,0.00,25.6,24.9,00.0,34.6,27.4,06.2,0000.0,0000.39,0000.30,0000.26
2022-01-14 09:38:00,,0820.8,5.01,0.00,25.6,24.9,00.0,34.6,27.4,05.9,0000.0,0000.42,0000.31,0000.27
2022-01-14 09:39:00,,0820.8,5.01,0.00,25.6,24.9,00.0,34.6,27.4,05.7,0000.0,0000.51,0000.34,0000.27
2022-01-14 09:40:00,,0820.8,4.99,0.00,25.6,24.9,00.0,34.6,27.4,05.6,0000.0,0000.50,0000.34,0000.27
2022-01-14 09:41:00,,0820.9,5.00,0.00,25.6,24.9,00.0,34.6,27.4,05.5,0000.0,0000.47,0000.33,0000.27
2022-01-14 09:42:00,,0820.9,5.00,0.00,25.6,24.9,00.0,34.6,27.4,05.6,0000.0,0000.46,0000.33,0000.26
2022-01-14 09:43:00,,0820.9,5.00,0.00,25.6,24.9,00.0,34.6,27.4,05.7,0000.0,0000.48,0000.33,0000.27
2022-01-14 09:44:00,,0821.0,5.01,0.00,25.6,24.8,00.0,34.6,27.4,05.9,0000.0,0000.50,0000.34,0000.26
2022-01-14 09:45:00,,0821.0,5.00,0.00,25.6,24.8,00.0,34.6,27.4,06.1,0000.0,0000.49,0000.33,0000.26
2022-01-14 09:46:00,,0821.0,4.99,0.00,25.6,24.8,00.0,34.6,27.4,06.3,0000.0,0000.48,0000.33,0000.26
2022-01-14 09:47:00,,0821.0,5.00,0.00,25.6,24.8,00.0,34.6,27.4,06.1,0000.0,0001.26,0000.34,0000.26
2022-01-14 09:48:00,,0821.0,5.00,0.00,25.5,24.8,00.0,34.6,27.3,06.0,0000.0,0002.15,0000.34,0000.26
2022-01-14 09:49:00,,0820.9,4.99,0.00,25.5,24.8,00.0,34.6,27.3,06.0,0000.0,0002.13,0000.33,0000.25
2022-01-14 09:50:00,,0820.9,5.00,0.00,25.5,24.8,00.0,34.6,27.3,06.1,0000.0,0002.15,0000.31,0000.25
2022-01-14 09:51:00,,0820.9,5.01,0.00,25.5,24.7,00.0,34.6,27.2,06.3,0000.0,0002.16,0000.31,0000.26
2022-01-14 09:52:00,,0820.8,5.00,0.00,25.5,24.7,00.0,34.6,27.2,06.3,0000.0,0002.19,0000.33,0000.27
2022-01-14 09:53:00,,0820.8,4.99,0.00,25.4,24.7,00.0,34.5,27.2,06.0,0000.0,0002.23,0000.34,0000.27
2022-01-14 09:54:00,,0820.8,4.99,0.00,25.4,24.7,00.0,34.5,27.2,06.5,0000.0,0002.20,0000.33,0000.27
2022-01-14 09:55:00,,0820.9,5.02,0.00,25.4,24.7,00.0,34.5,27.2,07.2,0000.0,0002.23,0000.35,0000.28
2022-01-14 09:56:00,,0820.9,5.00,0.00,25.4,24.6,00.0,34.5,27.2,07.5,0000.0,0002.45,0000.53,0000.43
2022-01-14 09:57:00,,0820.9,4.99,0.00,25.4,24.6,00.0,34.5,27.2,07.4,0000.0,0002.67,0000.71,0000.59
2022-01-14 09:58:00,,0821.0,5.00,0.00,25.4,24.7,00.0,34.5,27.2,07.1,0000.0,0002.00,0000.84,0000.72
2022-01-14 09:59:00,,0821.1,5.00,0.00,25.4,24.6,00.0,34.5,27.2,07.3,0000.0,0001.44,0000.99,0000.86
